Home > Weather > Delémont > Past weeks

Flag for Switzerland Past Weather in Delémont, Jura, Switzerland — Yesterday and Last 2 Weeks

Now
72 °F

Mild.


Feels Like: 74 °F
Forecast: 54 / 69 °F
Wind: 6 mph from Southwest

Location: Grenchen

Current Time: Jun 25, 2016 at 12:43:34 PM

Latest Report: Jun 25, 2016 at 12:00 PM


Visibility: N/A

Pressure: 29.94 "Hg

Humidity: 73%

Dew Point: 63 °F

Location of DelémontLocation

Past Weather in Delémont — Graph

°F

Delémont Temperature Yesterday

Maximum temperature yesterday: 89 °F (at 5:00 PM)
Minimum temperature yesterday: 65 °F (at 6:00 AM)
Average temperature yesterday: 77 °F

High & Low Weather Summary for the Past Weeks

 TemperatureHumidityPressure
High90 °F (Jun 23, 6:00 PM)100% (Jun 18, 3:00 AM)30.29 "Hg (Jun 18, 3:00 AM)
Low48 °F (Jun 20, 6:00 AM)35% (Jun 10, 5:00 PM)29.57 "Hg (Jun 15, 5:00 PM)
Average63 °F82%29.95 "Hg
* Reported Jun 10 11:00 AM — Jun 25 11:00 AM, Delémont, Weather by CustomWeather, © 2016

Note: Actual official high and low records may vary slightly from our data, if they occured in-between our weather recording intervals... More about our weather records

Advertising

Delémont Weather History for the Previous 24 Hours

Scroll right to see more
 ConditionsComfort  
Time TempWeatherWind HumidityBarometerVisibility
11:00 AM
Sat, Jun 25
70 °FMild.6 mph77%29.95 "HgN/A
10:00 AM67 °FMild.6 mph86%29.97 "HgN/A
9:00 AM65 °FMild.1 mph94%29.99 "HgN/A
7:00 AM63 °FMild.3 mph97%30.02 "HgN/A
6:00 AM64 °FMild.2 mph91%30.01 "HgN/A
5:00 AM63 °FMild.3 mph90%29.99 "HgN/A
4:00 AM66 °FMild.8 mph81%29.98 "HgN/A
3:00 AM65 °FMild.22 mph92%30.02 "HgN/A
2:00 AM66 °FMild.7 mph93%29.98 "HgN/A
1:00 AM67 °FMild.6 mph87%29.96 "HgN/A
12:00 AM71 °FMild.18 mph83%30.00 "HgN/A
11:00 PM
Fri, Jun 24
76 °FMild.3 mph69%29.93 "HgN/A
10:00 PM79 °FWarm.1 mph60%29.90 "HgN/A
9:00 PM81 °FWarm.13 mph57%29.92 "HgN/A
7:00 PM86 °FWarm.9 mph48%29.90 "HgN/A
6:00 PM88 °FHot.7 mph44%29.90 "HgN/A
5:00 PM89 °FHot.5 mph43%29.92 "HgN/A
4:00 PM88 °FHot.5 mph41%29.94 "HgN/A
3:00 PM88 °FPleasantly warm.2 mph39%29.96 "HgN/A
2:00 PM87 °FPleasantly warm.3 mph39%29.99 "HgN/A
1:00 PM84 °FWarm.5 mph41%30.02 "HgN/A
12:00 PM82 °FWarm.6 mph44%30.04 "HgN/A
Weather by CustomWeather, © 2016

See weather overviewHow to use our weather pages